Weather History for PHHI - September, 2014

Change the Weather History Date:

Sunday, September 28, 2014

  Actual Average Record
Temperature  
Mean Temperature 76 °F -  
Max Temperature 82 °F 82 °F 86 °F (2004)
Min Temperature 69 °F 68 °F 63 °F (2010)
Cooling Degree Days 10    
Growing Degree Days 26 (Base 50)    
Moisture  
Dew Point 68 °F    
Average Humidity 75    
Maximum Humidity 89    
Minimum Humidity 62    
Precipitation  
Precipitation 0.01 in - - ()
Sea Level Pressure  
Sea Level Pressure 29.95 in    
Wind  
Wind Speed 6 mph (NE)    
Max Wind Speed 17 mph    
Max Gust Speed 25 mph    
Visibility 10 miles    
Events Rain    
Averages and records for this station are not official NWS values.
T = Trace of Precipitation, MM = Missing Value Source: NWS Daily Summary

Daily Weather History Graph

Daily Weather History Graph

Search for Another Location

Airport or City:

Trip Planner

Search our weather history database for the weather conditions in past years. The results will help you decide how hot, cold, wet, or windy it might be!

Date:

Astronomy

Sep. 28, 2014 Rise Set
Actual Time 6:22 AM HST 6:22 PM HST
Civil Twilight 6:00 AM HST 6:44 PM HST
Nautical Twilight 5:34 AM HST 7:10 PM HST
Astronomical Twilight 5:08 AM HST 7:36 PM HST
Moon 10:18 AM HST (9/28) 9:46 PM HST (9/28)
Length of Visible Light 12h 44m
Length of Day
11h 59m
Waxing Crescent, 21% of the Moon is Illuminated
Sep 28
Waxing Crescent
Oct 1
First Quarter
Oct 8
Full
Oct 15
Last Quarter
Oct 23
New

Hourly Weather History & Observations

Time (HST) Temp. Heat Index Dew Point Humidity Pressure Visibility Wind Dir Wind Speed Gust Speed Precip Events Conditions
12:58 AM 70.3 °F - 64.9 °F 83% 29.94 in 10.0 mi NNW 2.3 mph - N/A   Partly Cloudy
1:58 AM 70.7 °F - 64.9 °F 82% 29.91 in 10.0 mi North 5.8 mph - N/A   Clear
2:58 AM 72.9 °F - 65.1 °F 77% 29.91 in 10.0 mi NNW 4.6 mph - N/A   Clear
3:58 AM 72.7 °F - 65.7 °F 79% 29.91 in 10.0 mi NNW 4.6 mph - N/A   Mostly Cloudy
4:04 AM 73.4 °F - 66.2 °F 78% 29.94 in 10.0 mi North 3.5 mph - N/A   Light Drizzle
4:14 AM 73.4 °F - 66.2 °F 78% 29.94 in 10.0 mi North 4.6 mph - N/A   Overcast
4:24 AM 73.4 °F - 66.2 °F 78% 29.94 in 10.0 mi NNW 3.5 mph - N/A   Light Drizzle
4:38 AM 71.6 °F - 66.2 °F 83% 29.94 in 10.0 mi NNW 3.5 mph - N/A   Overcast
4:47 AM 71.6 °F - 68.0 °F 88% 29.95 in 10.0 mi North 4.6 mph - N/A   Light Drizzle
4:58 AM 72.3 °F - 67.6 °F 85% 29.92 in 10.0 mi Variable 1.2 mph - 0.00 in   Light Drizzle
5:00 AM 71.6 °F - 68.0 °F 88% 29.95 in 10.0 mi South 1.2 mph - N/A   Overcast
5:10 AM 69.8 °F - 66.2 °F 88% 29.95 in 10.0 mi SW 2.3 mph - N/A   Mostly Cloudy
5:58 AM 70.2 °F - 66.9 °F 89% 29.92 in 10.0 mi Variable 3.5 mph - 0.00 in   Mostly Cloudy
6:26 AM 71.6 °F - 68.0 °F 88% 29.95 in 10.0 mi NNW 4.6 mph - N/A   Light Drizzle
6:41 AM 71.6 °F - 68.0 °F 88% 29.95 in 10.0 mi NW 4.6 mph - N/A   Mostly Cloudy
6:58 AM 72.0 °F - 68.2 °F 88% 29.92 in 10.0 mi Variable 4.6 mph - 0.00 in   Mostly Cloudy
7:58 AM 76.6 °F - 68.7 °F 76% 29.95 in 10.0 mi Variable 2.3 mph - N/A   Scattered Clouds
8:58 AM 79.3 °F - 68.4 °F 69% 29.96 in 10.0 mi East 8.1 mph - N/A   Mostly Cloudy
9:58 AM 80.2 °F 83.2 °F 69.3 °F 69% 29.96 in 10.0 mi East 17.3 mph - N/A   Mostly Cloudy
9:59 AM 80.6 °F 83.9 °F 69.8 °F 70% 30.00 in 7.0 mi East 12.7 mph - N/A Rain Light Rain
10:04 AM 78.8 °F - 71.6 °F 78% 30.00 in 4.0 mi ENE 8.1 mph - N/A Rain Light Rain
10:14 AM 77.0 °F - 71.6 °F 83% 30.00 in 10.0 mi NE 4.6 mph - N/A   Overcast
10:44 AM 78.8 °F - 69.8 °F 74% 29.99 in 10.0 mi East 6.9 mph - N/A   Overcast
10:49 AM 78.8 °F - 69.8 °F 74% 29.99 in 10.0 mi ENE 6.9 mph - N/A   Mostly Cloudy
10:54 AM 80.6 °F 83.9 °F 69.8 °F 70% 29.99 in 10.0 mi NE 8.1 mph - N/A   Overcast
10:58 AM 79.7 °F - 70.0 °F 72% 29.96 in 10.0 mi NNE 9.2 mph - 0.01 in   Overcast
11:03 AM 80.6 °F 83.9 °F 69.8 °F 70% 29.98 in 10.0 mi East 5.8 mph - N/A   Mostly Cloudy
11:53 AM 82.4 °F 86.3 °F 69.8 °F 66% 29.96 in 10.0 mi ENE 16.1 mph 21.9 mph N/A   Overcast
11:58 AM 82.4 °F 86.3 °F 69.8 °F 66% 29.93 in 10.0 mi East 16.1 mph - N/A   Overcast
12:03 PM 82.4 °F 86.3 °F 69.8 °F 66% 29.96 in 10.0 mi East 16.1 mph 25.3 mph N/A   Mostly Cloudy
12:58 PM 82.6 °F 86.4 °F 69.8 °F 65% 29.92 in 10.0 mi ENE 16.1 mph 21.9 mph N/A   Mostly Cloudy
1:08 PM 82.4 °F 86.3 °F 69.8 °F 66% 29.94 in 10.0 mi East 11.5 mph - N/A   Mostly Cloudy
1:13 PM 80.6 °F 83.9 °F 69.8 °F 70% 29.94 in 10.0 mi East 10.4 mph - N/A   Overcast
1:23 PM 80.6 °F 83.9 °F 69.8 °F 70% 29.94 in 10.0 mi East 13.8 mph - N/A   Overcast
1:38 PM 80.6 °F 83.9 °F 69.8 °F 70% 29.93 in 10.0 mi ENE 15.0 mph 19.6 mph N/A   Overcast
1:58 PM 80.6 °F 83.6 °F 69.3 °F 68% 29.90 in 10.0 mi East 9.2 mph - N/A   Overcast
2:18 PM 80.6 °F 83.2 °F 68.0 °F 65% 29.92 in 10.0 mi East 13.8 mph 20.7 mph N/A   Overcast
2:28 PM 82.4 °F 85.4 °F 68.0 °F 62% 29.93 in 10.0 mi East 12.7 mph 20.7 mph N/A   Overcast
2:58 PM 80.1 °F 82.7 °F 68.2 °F 67% 29.89 in 10.0 mi East 12.7 mph 18.4 mph N/A   Overcast
3:23 PM 80.6 °F 83.2 °F 68.0 °F 65% 29.92 in 10.0 mi Variable 5.8 mph - N/A   Overcast
3:28 PM 80.6 °F 83.2 °F 68.0 °F 65% 29.92 in 10.0 mi East 10.4 mph - N/A   Overcast
3:58 PM 80.1 °F 82.4 °F 67.5 °F 65% 29.89 in 10.0 mi ESE 5.8 mph - N/A   Overcast
4:08 PM 80.6 °F 83.2 °F 68.0 °F 65% 29.93 in 10.0 mi ESE 9.2 mph 17.3 mph N/A   Overcast
4:58 PM 77.0 °F - 68.0 °F 74% 29.91 in 10.0 mi Variable 5.8 mph - N/A   Overcast
5:58 PM 76.1 °F - 67.5 °F 74% 29.93 in 10.0 mi Variable 1.2 mph - N/A   Overcast
6:08 PM 77.0 °F - 68.0 °F 74% 29.95 in 10.0 mi ENE 5.8 mph - N/A   Overcast
6:13 PM 77.0 °F - 68.0 °F 74% 29.95 in 10.0 mi East 2.3 mph - N/A   Overcast
6:58 PM 76.5 °F - 66.2 °F 70% 29.96 in 10.0 mi Calm Calm - N/A   Overcast
7:00 PM 77.0 °F - 66.2 °F 69% 29.96 in 10.0 mi Variable 1.2 mph - N/A Rain Light Rain
7:09 PM 75.2 °F - 68.0 °F 78% 29.96 in 10.0 mi Calm Calm - N/A   Overcast
7:58 PM 76.8 °F - 66.2 °F 70% 29.94 in 10.0 mi East 3.5 mph - 0.00 in   Overcast
8:42 PM 75.2 °F - 66.2 °F 73% 29.99 in 10.0 mi ENE 1.2 mph - N/A   Light Drizzle
8:52 PM 75.2 °F - 68.0 °F 78% 29.98 in 10.0 mi Variable 2.3 mph - N/A   Overcast
8:58 PM 75.2 °F - 68.0 °F 78% 29.95 in 10.0 mi WSW 3.5 mph - 0.00 in   Overcast
9:58 PM 74.5 °F - 68.4 °F 81% 29.96 in 10.0 mi Variable 3.5 mph - N/A   Overcast
10:58 PM 75.0 °F - 68.5 °F 80% 29.96 in 10.0 mi NW 4.6 mph - N/A   Overcast
11:43 PM 75.2 °F - 68.0 °F 78% 29.98 in 10.0 mi WNW 2.3 mph - N/A   Light Drizzle
11:58 PM 75.0 °F - 69.1 °F 82% 29.95 in 10.0 mi NW 4.6 mph - 0.00 in   Light Drizzle
11:59 PM 75.2 °F - 69.8 °F 83% 29.98 in 10.0 mi NW 4.6 mph - N/A   Mostly Cloudy